Location: Natural Bridges National Monument
(37.6093°N, 109.9767°W)
Time: 01:56:27
(UTC-06:00)

Amateur Radio Satellites - All Passes

Search period start: 28 May 2015 01:26
Search period end: 29 May 2015 01:26
Location: Natural Bridges National Monument, 37.6093°N, 109.9767°W

Satellite Date Start Highest point End Downlink Frequencies (MHz)
Time Altitude Azimuth
DANDE 28 May 01:40:20 01:47:24 43° 271° (W) 01:52:56 436.750
QB50P1 28 May 01:46:28 01:48:47 14° 293° (WNW) 01:50:54 145.935-145.965
Oscar 19 28 May 01:48:54 01:52:24 19° 92° (E) 01:56:04 437.125/150
POLYITAN 1 28 May 01:49:19 01:51:22 13° 294° (WNW) 01:53:13 437.675
GONETS M04 28 May 01:51:07 01:59:38 56° 269° (W) 02:08:01
O/OREOS (USA 219) 28 May 01:57:13 02:01:39 61° 67° (ENE) 02:06:05 437.305
CUSAT 1 28 May 02:06:06 02:10:35 18° 279° (W) 02:14:11 437.405
VERMONT LUNAR 28 May 02:23:13 02:26:27 74° 159° (SSE) 02:29:39 437.305
Cosmos 2499 28 May 02:27:17 02:34:03 48° 77° (ENE) 02:40:59 435.465 / 435.565
KKS-1 28 May 02:36:47 02:40:17 24° 69° (ENE) 02:43:55 437.445
ITUPSAT 1 28 May 02:43:29 02:48:07 50° 261° (W) 02:52:44 437.325
BEESAT 2 28 May 02:44:16 02:47:31 23° 49° (NE) 02:50:48 435.950
Gurwin Techsat 1B 28 May 02:49:23 02:53:10 20° 92° (E) 02:57:07 435.225
BEESAT 28 May 02:50:37 02:55:06 41° 262° (W) 02:59:35 436.000
PCSat 28 May 02:52:51 02:56:35 18° 314° (NW) 03:00:10 145.827
SWISSCUBE 28 May 02:59:42 03:03:53 30° 264° (W) 03:08:03 437.505
SO-50 28 May 03:00:56 03:05:16 40° 115° (ESE) 03:09:47 436.795
PHONESAT 2.4 28 May 03:05:17 03:08:38 46° 155° (SSE) 03:12:00 2401.200-2431.200
Oscar 19 28 May 03:27:07 03:32:02 46° 288° (WNW) 03:36:54 437.125/150
BEESAT 3 28 May 03:31:13 03:35:18 88° 59° (ENE) 03:39:19 437.485
STARS 28 May 03:37:07 03:41:31 68° 75° (ENE) 03:45:58 437.465
O/OREOS (USA 219) 28 May 03:39:38 03:40:36 10° 261° (W) 03:41:16 437.305
ITAMSAT 1 28 May 03:43:25 03:48:39 72° 101° (ESE) 03:53:53 435.822/435.867
VERMONT LUNAR 28 May 04:00:37 04:03:44 48° 356° (N) 04:06:52 437.305
JAS-2 28 May 04:07:49 04:11:20 19° 93° (E) 04:15:10 435.910
KKS-1 28 May 04:12:52 04:16:49 29° 264° (W) 04:20:43 437.445
MOZHAYETS 4 28 May 04:14:29 04:17:48 21° 69° (ENE) 04:21:14
AIST 2 28 May 04:19:04 04:23:16 62° 58° (ENE) 04:27:22 435.215
Cosmos 2499 28 May 04:21:12 04:26:52 26° 273° (W) 04:32:25 435.465 / 435.565
BEESAT 2 28 May 04:22:01 04:25:39 30° 246° (WSW) 04:29:10 435.950
Gurwin Techsat 1B 28 May 04:28:20 04:33:25 45° 288° (WNW) 04:38:26 435.225
SO-50 28 May 04:42:08 04:45:59 24° 313° (NW) 04:49:52 436.795
PHONESAT 2.4 28 May 04:43:18 04:46:44 59° 350° (N) 04:50:11 2401.200-2431.200
HORYU 2 28 May 04:58:18 05:02:43 66° 101° (ESE) 05:07:06 437.375
AO-7 28 May 05:03:03 05:11:10 53° 101° (E) 05:19:18 29.400- 29.500
ITAMSAT 1 28 May 05:24:58 05:27:37 14° 297° (WNW) 05:30:01 435.822/435.867
VERMONT LUNAR 28 May 05:37:57 05:41:10 68° 14° (NNE) 05:44:20 437.305
Cosmos 2491 28 May 05:40:37 05:46:35 20° 64° (ENE) 05:52:57 435.465 / 435.565
MOZHAYETS 4 28 May 05:50:38 05:54:49 35° 263° (W) 05:59:00
JAS-2 28 May 05:51:52 05:56:46 44° 288° (WNW) 06:01:50 435.910
ISS 28 May 05:54:32 05:57:35 36° 34° (NNE) 06:00:39 145.825
CUBESAT XI-V 28 May 05:56:45 06:00:01 20° 68° (ENE) 06:03:25 437.345
AIST 2 28 May 06:00:33 06:01:21 10° 252° (WSW) 06:01:54 435.215
STRAND 1 28 May 06:09:45 06:11:54 13° 63° (ENE) 06:14:20 437.568
PHONESAT 2.4 28 May 06:21:41 06:25:06 56° 8° (N) 06:28:31 2401.200-2431.200
Cubesat XI-IV 28 May 06:27:56 06:30:51 15° 90° (E) 06:34:03 437.490
YUBILEINY 28 May 06:31:21 06:36:25 18° 81° (E) 06:41:59 435.215
HORYU 2 28 May 06:37:31 06:38:52 11° 295° (WNW) 06:39:57 437.375
PRISM 28 May 06:45:57 06:49:25 28° 71° (ENE) 06:52:57 437.425
AO-7 28 May 06:56:22 07:03:42 34° 298° (WNW) 07:10:52 29.400- 29.500
M-CUBED/EXP-1 PRIME 28 May 07:00:55 07:04:25 27° 68° (ENE) 07:07:47 437.505
AUBIESAT-1 28 May 07:07:47 07:11:17 28° 68° (ENE) 07:14:38 437.475
AIST 1 28 May 07:14:10 07:16:12 13° 70° (ENE) 07:18:29
VERMONT LUNAR 28 May 07:15:21 07:18:13 30° 208° (SSW) 07:21:03 437.305
ISS 28 May 07:31:20 07:33:51 20° 229° (SW) 07:36:19 145.825
CUBESAT XI-V 28 May 07:32:59 07:37:14 36° 263° (W) 07:41:30 437.345
Cosmos 2491 28 May 07:35:46 07:44:38 79° 264° (W) 07:53:23 435.465 / 435.565
CUTE-I 28 May 07:45:01 07:50:25 85° 103° (ESE) 07:55:49 437.470
STRAND 1 28 May 07:45:30 07:50:34 72° 258° (WSW) 07:55:41 437.568
PHONESAT 2.4 28 May 07:59:51 08:03:15 53° 204° (SSW) 08:06:37 2401.200-2431.200
RS-15 28 May 08:05:17 08:14:00 31° 106° (ESE) 08:23:13 29.354- 29.394
Cubesat XI-IV 28 May 08:06:08 08:11:27 61° 287° (WNW) 08:16:44 437.490
PRISM 28 May 08:21:49 08:24:54 20° 266° (W) 08:27:54 437.425
YUBILEINY 28 May 08:23:31 08:32:19 83° 278° (W) 08:41:06 435.215
M-CUBED/EXP-1 PRIME 28 May 08:35:52 08:39:14 22° 259° (W) 08:42:20 437.505
AUBIESAT-1 28 May 08:42:48 08:46:03 21° 260° (W) 08:49:02 437.475
Cosmos 2504 28 May 08:49:46 08:51:51 12° 81° (E) 08:54:34 435.465 / 435.565
AIST 1 28 May 08:49:59 08:54:12 46° 267° (W) 08:58:25
SEEDS 28 May 09:00:57 09:01:52 11° 89° (E) 09:03:02 437.485
COMPASS 1 28 May 09:11:32 09:12:49 11° 89° (E) 09:14:21 437.405
GOMX 1 28 May 09:20:08 09:25:15 46° 97° (E) 09:30:04 467.674
AAUSAT CUBESAT 2 28 May 09:21:54 09:23:46 13° 90° (E) 09:25:53 437.432
BRITE-PL 28 May 09:24:38 09:30:18 82° 101° (ESE) 09:35:38 437.365/2234.400
CUTE-I 28 May 09:27:46 09:29:52 12° 298° (WNW) 09:31:38 437.470
Cosmos 2491 28 May 09:36:20 09:40:16 13° 282° (WNW) 09:43:27 435.465 / 435.565
PHONESAT 2.4 28 May 09:40:04 09:40:54 11° 217° (SW) 09:41:36 2401.200-2431.200
CINEMA 3 28 May 09:41:54 09:45:22 21° 92° (E) 09:48:50 145.822/145.860
HO-68 28 May 09:49:14 09:56:15 58° 101° (E) 10:03:16 435.675
PCSat 28 May 09:57:15 10:02:13 36° 55° (NE) 10:07:13 145.827
CANX-2 28 May 10:10:18 10:14:32 75° 282° (WNW) 10:18:42 2200.000
CUTE 1.7 + AOD 2 28 May 10:13:37 10:17:50 77° 284° (WNW) 10:22:01 437.475
DOVE 4 28 May 10:13:47 10:18:53 79° 282° (WNW) 10:23:39 437.250
RS-15 28 May 10:14:47 10:25:37 68° 305° (NW) 10:36:45 29.354- 29.394
ZACube-1 28 May 10:19:18 10:21:45 15° 91° (E) 10:24:19 437.345
CUBEBUG 2 28 May 10:23:12 10:27:00 28° 95° (E) 10:30:44 437.445
ANTELSAT 28 May 10:23:40 10:27:35 27° 70° (ENE) 10:31:32 437.575/2403.000
YUBILEINY 28 May 10:25:46 10:30:47 15° 300° (WNW) 10:35:11 435.215
Oscar 11 28 May 10:27:10 10:31:06 35° 97° (E) 10:35:03 145.826/435.025
SEEDS 28 May 10:33:59 10:38:04 53° 286° (WNW) 10:42:07 437.485
Cosmos 2504 28 May 10:35:57 10:44:19 77° 95° (E) 10:52:08 435.465 / 435.565
COMPASS 1 28 May 10:44:50 10:48:51 49° 286° (WNW) 10:52:51 437.405
TIGRISAT 28 May 10:55:00 10:59:35 57° 75° (ENE) 11:04:10 435.000
AAUSAT CUBESAT 2 28 May 10:55:44 10:59:40 43° 286° (WNW) 11:03:34 437.432
GOMX 1 28 May 10:59:03 11:02:59 21° 294° (WNW) 11:06:38 467.674
QB50P1 28 May 11:00:14 11:03:52 28° 71° (ENE) 11:07:34 145.935-145.965
POLYITAN 1 28 May 11:02:56 11:06:43 31° 71° (ENE) 11:10:33 437.675
BRITE-PL 28 May 11:05:19 11:08:04 13° 297° (WNW) 11:10:28 437.365/2234.400
UWE-3 28 May 11:06:56 11:11:18 74° 101° (E) 11:15:32 435.000/436.395/437.385
DELFI C3 28 May 11:12:36 11:16:38 89° 288° (WNW) 11:20:39 145.870
FUNcube-1 28 May 11:12:52 11:17:09 65° 101° (E) 11:21:18 145.935
JUGNU 28 May 11:15:26 11:17:50 13° 175° (S) 11:20:15 437.505
UNISAT 6 28 May 11:16:01 11:20:43 81° 258° (WSW) 11:25:23 437.425
CINEMA 3 28 May 11:18:28 11:22:41 33° 289° (WNW) 11:26:39 145.822/145.860
AISAT 28 May 11:20:40 11:23:43 18° 93° (E) 11:26:53 437.250
NANOSAT C BR1 28 May 11:30:20 11:34:33 63° 75° (ENE) 11:38:48 145.865
SO-50 28 May 11:34:20 11:38:25 25° 48° (NE) 11:42:32 436.795
HUMSAT D 28 May 11:35:34 11:39:38 52° 100° (E) 11:43:37 437.325/437.525
HO-68 28 May 11:37:49 11:43:35 26° 298° (WNW) 11:49:09 435.675
QB50P2 28 May 11:39:27 11:43:44 84° 78° (ENE) 11:48:04 145.880/145.840
PCSat 28 May 11:40:53 11:45:32 29° 251° (WSW) 11:50:03 145.827
CUSAT 1 28 May 11:45:22 11:48:20 13° 79° (E) 11:52:01 437.405
POPSAT HIP 1 28 May 11:51:20 11:55:37 73° 258° (WSW) 11:59:56 437.405
DUCHIFAT 1 28 May 11:51:59 11:56:14 74° 258° (WSW) 12:00:32 145.980
UKube-1 28 May 11:52:29 11:56:52 78° 102° (ESE) 12:01:12 .
ZACube-1 28 May 11:54:19 11:58:22 39° 287° (WNW) 12:02:15 437.345
CUBEBUG 2 28 May 12:00:05 12:03:35 22° 291° (WNW) 12:06:53 437.445
ANTELSAT 28 May 12:00:17 12:04:19 27° 265° (W) 12:08:14 437.575/2403.000
DX 1 28 May 12:03:34 12:07:58 72° 285° (WNW) 12:12:19 434.975-435.025
Oscar 11 28 May 12:04:03 12:07:04 18° 291° (WNW) 12:09:56 145.826/435.025
BUGSAT 1 28 May 12:08:03 12:12:10 70° 259° (WSW) 12:16:23 437.445
50 SAT 28 May 12:10:07 12:14:00 77° 101° (E) 12:17:50 437.505
CUBEBUG 1 28 May 12:17:37 12:21:46 38° 98° (E) 12:25:56 437.445
VELOX 1 28 May 12:23:45 12:28:16 89° 270° (W) 12:32:45 145.980
RS-15 28 May 12:32:32 12:40:48 22° 334° (NNW) 12:48:59 29.354- 29.394
ESTCUBE 1 28 May 12:32:47 12:37:18 68° 101° (E) 12:41:50 437.505/2401.250
Cosmos 2504 28 May 12:32:48 12:38:34 19° 293° (WNW) 12:43:43 435.465 / 435.565
TIGRISAT 28 May 12:34:31 12:36:44 13° 270° (W) 12:38:42 435.000
SRMSAT 28 May 12:36:02 12:37:58 12° 172° (S) 12:39:56 437.500
QB50P1 28 May 12:36:21 12:39:44 22° 266° (W) 12:43:03 145.935-145.965
POLYITAN 1 28 May 12:39:24 12:42:41 20° 267° (W) 12:45:51 437.675
SPROUT 28 May 12:50:45 12:54:14 24° 94° (E) 12:57:46 437.525
FUNcube-1 28 May 12:52:19 12:52:57 10° 295° (WNW) 12:53:19 145.935
GONETS M04 28 May 12:53:32 13:01:13 36° 87° (E) 13:09:07
AISAT 28 May 12:56:17 13:00:27 37° 288° (WNW) 13:04:33 437.250
DANDE 28 May 13:02:49 13:09:23 43° 89° (E) 13:17:11 436.750
JUGNU 28 May 13:03:31 13:06:01 13° 185° (S) 13:08:28 437.505
Oscar 19 28 May 13:03:49 13:07:51 24° 68° (ENE) 13:12:01 437.125/150
TISAT 1 28 May 13:07:41 13:11:15 26° 95° (E) 13:14:51 437.305
HUMSAT D 28 May 13:13:20 13:14:57 12° 294° (WNW) 13:16:21 437.325/437.525
SO-50 28 May 13:14:29 13:19:08 40° 245° (WSW) 13:23:39 436.795
CUSAT 1 28 May 13:22:25 13:29:42 75° 96° (E) 13:38:02 437.405
ITAMSAT 1 28 May 13:25:07 13:25:50 10° 61° (ENE) 13:26:53 435.822/435.867
CUBEBUG 1 28 May 13:54:47 13:57:52 18° 292° (WNW) 14:00:48 437.445
Gurwin Techsat 1B 28 May 14:08:32 14:12:53 27° 68° (ENE) 14:17:22 435.225
ESTCUBE 1 28 May 14:12:10 14:13:41 11° 295° (WNW) 14:14:55 437.505/2401.250
AO-7 28 May 14:13:58 14:16:30 12° 49° (NE) 14:19:35 29.400- 29.500
SRMSAT 28 May 14:23:38 14:26:18 13° 182° (S) 14:28:56 437.500
SPROUT 28 May 14:26:38 14:30:18 26° 289° (WNW) 14:33:52 437.525
Oscar 19 28 May 14:42:10 14:47:01 38° 262° (W) 14:51:50 437.125/150
TISAT 1 28 May 14:43:29 14:46:57 24° 290° (WNW) 14:50:17 437.305
ITUPSAT 1 28 May 14:45:51 14:50:29 48° 99° (E) 14:55:08 437.325
DANDE 28 May 14:45:54 14:52:42 39° 290° (WNW) 15:00:27 436.750
GONETS M04 28 May 14:49:29 14:57:56 46° 285° (WNW) 15:06:18
BEESAT 28 May 14:52:24 14:57:07 58° 101° (E) 15:01:49 436.000
RS-15 28 May 14:52:46 14:59:12 16° 10° (N) 15:05:57 29.354- 29.394
ITAMSAT 1 28 May 14:59:29 15:04:40 89° 77° (ENE) 15:09:53 435.822/435.867
Cosmos 2499 28 May 15:01:04 15:08:35 44° 91° (E) 15:15:41 435.465 / 435.565
SWISSCUBE 28 May 15:01:07 15:05:55 79° 101° (ESE) 15:10:43 437.505
CUSAT 1 28 May 15:07:23 15:13:23 23° 297° (WNW) 15:19:31 437.405
STARS 28 May 15:30:24 15:32:42 14° 91° (E) 15:35:12 437.465
Gurwin Techsat 1B 28 May 15:47:56 15:52:45 34° 263° (W) 15:57:33 435.225
HORYU 2 28 May 15:54:33 15:58:51 48° 73° (ENE) 16:03:11 437.375
AO-7 28 May 15:59:44 16:07:47 60° 68° (ENE) 16:15:57 29.400- 29.500
JAS-2 28 May 16:00:45 16:07:19 60° 74° (ENE) 16:13:09 435.910
KKS-1 28 May 16:05:13 16:09:39 61° 100° (E) 16:14:03 437.445
O/OREOS (USA 219) 28 May 16:07:19 16:11:50 76° 291° (WNW) 16:16:21 437.305
ITUPSAT 1 28 May 16:24:53 16:28:02 17° 294° (WNW) 16:31:00 437.325
BEESAT 28 May 16:31:54 16:34:31 14° 295° (WNW) 16:36:55 436.000
SWISSCUBE 28 May 16:42:00 16:43:12 11° 297° (WNW) 16:44:06 437.505
Cosmos 2499 28 May 16:54:38 17:01:52 34° 287° (WNW) 17:08:30 435.465 / 435.565
STARS 28 May 17:05:12 17:09:26 45° 287° (WNW) 17:13:38 437.465
RS-15 28 May 17:06:00 17:16:24 38° 42° (NE) 17:27:25 29.354- 29.394
BEESAT 3 28 May 17:22:42 17:26:00 25° 113° (ESE) 17:29:24 437.485
CUTE-I 28 May 17:28:17 17:30:50 14° 63° (ENE) 17:33:39 437.470
HORYU 2 28 May 17:33:19 17:35:49 14° 269° (W) 17:38:05 437.375
KKS-1 28 May 17:43:56 17:45:49 12° 295° (WNW) 17:47:29 437.445
MOZHAYETS 4 28 May 17:47:07 17:51:39 62° 101° (E) 17:56:11
Cubesat XI-IV 28 May 17:47:54 17:51:49 22° 66° (ENE) 17:55:54 437.490
JAS-2 28 May 17:47:59 17:52:43 19° 267° (W) 17:56:51 435.910
AO-7 28 May 17:54:09 18:01:05 28° 266° (W) 18:07:50 29.400- 29.500
BEESAT 2 28 May 18:13:07 18:17:12 77° 119° (ESE) 18:21:21 435.950
AIST 2 28 May 18:15:57 18:19:08 21° 112° (ESE) 18:22:27 435.215
YUBILEINY 28 May 18:36:22 18:44:34 45° 75° (ENE) 18:52:49 435.215
Cosmos 2491 28 May 18:40:03 18:46:30 25° 83° (E) 18:53:20 435.465 / 435.565
BEESAT 3 28 May 19:00:23 19:03:54 27° 309° (NW) 19:07:26 437.485
CUTE-I 28 May 19:05:05 19:10:22 72° 258° (WSW) 19:15:42 437.470
RS-15 28 May 19:18:13 19:29:50 70° 244° (WSW) 19:41:50 29.354- 29.394
MOZHAYETS 4 28 May 19:26:27 19:28:24 12° 294° (WNW) 19:30:09
Cubesat XI-IV 28 May 19:26:36 19:31:39 44° 261° (W) 19:36:44 437.490
CUBESAT XI-V 28 May 19:31:01 19:35:42 63° 100° (E) 19:40:22 437.345
DOVE 4 28 May 19:44:18 19:44:31 10° 62° (ENE) 19:45:05 437.250
AIST 2 28 May 19:53:39 19:57:33 33° 307° (NW) 20:01:27 435.215
BEESAT 2 28 May 19:54:14 19:55:52 12° 317° (NW) 19:57:20 435.950
STRAND 1 28 May 19:58:02 20:02:56 45° 98° (E) 20:07:53 437.568
PRISM 28 May 20:04:38 20:08:46 61° 101° (E) 20:12:53 437.425
HO-68 28 May 20:15:59 20:22:18 36° 66° (ENE) 20:28:44 435.675
M-CUBED/EXP-1 PRIME 28 May 20:18:26 20:21:03 22° 101° (E) 20:23:44 437.505
AUBIESAT-1 28 May 20:24:40 20:27:19 22° 101° (E) 20:30:03 437.475
GOMX 1 28 May 20:25:38 20:30:25 40° 71° (ENE) 20:35:29 467.674
Cosmos 2504 28 May 20:32:06 20:37:11 21° 68° (ENE) 20:42:34 435.465 / 435.565
BRITE-PL 28 May 20:32:45 20:37:50 73° 77° (ENE) 20:43:21 437.365/2234.400
YUBILEINY 28 May 20:33:30 20:41:15 36° 273° (W) 20:48:48 435.215
Cosmos 2491 28 May 20:34:00 20:42:44 65° 281° (W) 20:51:30 435.465 / 435.565
CINEMA 3 28 May 20:41:41 20:45:03 19° 67° (ENE) 20:48:37 145.822/145.860
CANX-2 28 May 21:01:04 21:05:16 59° 75° (ENE) 21:09:28 2200.000
CUTE 1.7 + AOD 2 28 May 21:04:19 21:08:30 58° 75° (ENE) 21:12:42 437.475
CUBESAT XI-V 28 May 21:10:28 21:12:40 13° 294° (WNW) 21:14:39 437.345
ZACube-1 28 May 21:14:39 21:16:10 12° 66° (ENE) 21:17:56 437.345
DOVE 4 28 May 21:16:21 21:21:28 83° 78° (ENE) 21:26:49 437.250
AIST 1 28 May 21:17:06 21:21:21 72° 278° (W) 21:25:38
CUBEBUG 2 28 May 21:19:34 21:23:10 22° 69° (ENE) 21:26:53 437.445
Oscar 11 28 May 21:20:35 21:23:55 22° 70° (ENE) 21:27:20 145.826/435.025
SEEDS 28 May 21:23:42 21:27:55 81° 78° (ENE) 21:32:09 437.485
COMPASS 1 28 May 21:33:42 21:37:53 84° 79° (E) 21:42:04 437.405
RS-15 28 May 21:35:18 21:40:45 13° 260° (W) 21:44:59 29.354- 29.394
STRAND 1 28 May 21:38:04 21:41:52 21° 294° (WNW) 21:45:31 437.568
PRISM 28 May 21:42:44 21:43:46 11° 295° (WNW) 21:44:34 437.425
AAUSAT CUBESAT 2 28 May 21:44:06 21:48:16 86° 261° (W) 21:52:26 437.432
M-CUBED/EXP-1 PRIME 28 May 21:53:39 21:55:50 16° 295° (WNW) 21:57:56 437.505
DELFI C3 28 May 21:58:02 22:01:48 40° 74° (ENE) 22:05:37 145.870
AUBIESAT-1 28 May 21:59:52 22:02:01 16° 295° (WNW) 22:04:05 437.475
UWE-3 28 May 22:01:36 22:06:05 49° 74° (ENE) 22:10:37 435.000/436.395/437.385
HO-68 28 May 22:03:12 22:09:57 41° 262° (W) 22:16:38 435.675
GOMX 1 28 May 22:04:34 22:08:42 23° 269° (W) 22:12:53 467.674
FUNcube-1 28 May 22:06:19 22:10:37 41° 73° (ENE) 22:14:55 145.935
BRITE-PL 28 May 22:14:55 22:17:08 12° 275° (W) 22:19:03 437.365/2234.400
CINEMA 3 28 May 22:17:05 22:21:53 48° 262° (W) 22:26:46 145.822/145.860
AISAT 28 May 22:17:42 22:19:55 14° 66° (ENE) 22:22:20 437.250
Cosmos 2504 28 May 22:24:09 22:31:13 61° 267° (W) 22:38:18 435.465 / 435.565
HUMSAT D 28 May 22:25:31 22:29:15 30° 72° (ENE) 22:33:02 437.325/437.525
ISS 28 May 22:32:30 22:35:19 28° 133° (SE) 22:38:11 145.825
Cosmos 2491 28 May 22:39:20 22:41:51 11° 304° (NW) 22:43:36 435.465 / 435.565
CANX-2 28 May 22:41:16 22:41:39 10° 272° (W) 22:41:44 2200.000
CUTE 1.7 + AOD 2 28 May 22:44:04 22:44:52 10° 271° (W) 22:45:22 437.475
UKube-1 28 May 22:45:20 22:49:30 51° 74° (ENE) 22:53:44 .
ZACube-1 28 May 22:47:28 22:52:02 67° 259° (W) 22:56:37 437.345
TIGRISAT 28 May 22:50:51 22:52:37 13° 90° (E) 22:54:38 435.000
50 SAT 28 May 22:52:56 22:56:30 32° 73° (ENE) 23:00:06 437.505
CUBEBUG 2 28 May 22:55:16 22:59:40 35° 264° (W) 23:04:01 437.445
Oscar 11 28 May 22:56:12 22:59:59 28° 265° (W) 23:03:42 145.826/435.025
DX 1 28 May 22:57:00 23:01:20 76° 76° (ENE) 23:05:44 434.975-435.025
DOVE 4 28 May 22:59:06 23:00:01 10° 275° (W) 23:00:31 437.250
GONETS M04 28 May 23:07:28 23:11:52 15° 60° (ENE) 23:16:51
UNISAT 6 28 May 23:10:53 23:14:18 23° 94° (E) 23:17:45 437.425
CUBEBUG 1 28 May 23:12:17 23:15:51 26° 70° (ENE) 23:19:31 437.445
VELOX 1 28 May 23:19:16 23:23:38 64° 75° (ENE) 23:28:04 145.980
NANOSAT C BR1 28 May 23:19:27 23:20:50 12° 89° (E) 23:22:29 145.865
QB50P2 28 May 23:28:04 23:30:37 16° 91° (E) 23:33:19 145.880/145.840
ESTCUBE 1 28 May 23:30:31 23:34:49 48° 73° (ENE) 23:39:09 437.505/2401.250
DELFI C3 28 May 23:35:08 23:37:10 13° 269° (W) 23:39:00 145.870
POPSAT HIP 1 28 May 23:39:17 23:42:28 21° 93° (E) 23:45:44 437.405
DUCHIFAT 1 28 May 23:39:29 23:42:37 20° 93° (E) 23:45:50 145.980
UWE-3 28 May 23:40:05 23:42:55 15° 270° (W) 23:45:33 435.000/436.395/437.385
FUNcube-1 28 May 23:44:03 23:47:08 17° 268° (W) 23:50:03 145.935
SPROUT 28 May 23:44:05 23:46:35 16° 68° (ENE) 23:49:16 437.525
DANDE 28 May 23:48:27 23:54:54 30° 66° (ENE) 00:00:15 436.750
AISAT 28 May 23:51:45 23:56:06 52° 260° (W) 00:00:29 437.250
BUGSAT 1 28 May 23:53:02 23:56:06 20° 93° (E) 23:59:17 437.445
ANTELSAT 28 May 23:53:35 23:57:58 74° 101° (ESE) 00:02:13 437.575/2403.000
TISAT 1 28 May 23:58:55 00:01:31 17° 68° (ENE) 00:04:17 437.305
HUMSAT D 29 May 00:01:41 00:05:02 21° 266° (W) 00:08:16 437.325/437.525
CUSAT 1 29 May 00:05:25 00:12:06 50° 73° (ENE) 00:17:15 437.405
ISS 29 May 00:08:52 00:11:43 27° 329° (NNW) 00:14:34 145.825
QB50P1 29 May 00:22:16 00:26:32 68° 101° (E) 00:30:46 145.935-145.965
UKube-1 29 May 00:24:04 00:26:00 12° 270° (W) 00:27:42 .
POLYITAN 1 29 May 00:25:28 00:29:47 76° 103° (ESE) 00:34:00 437.675
TIGRISAT 29 May 00:25:33 00:29:46 48° 286° (WNW) 00:33:52 435.000
50 SAT 29 May 00:28:41 00:31:20 16° 268° (W) 00:33:48 437.505
PCSat 29 May 00:36:46 00:41:54 48° 112° (ESE) 00:47:08 145.827
O/OREOS (USA 219) 29 May 00:41:34 00:43:50 14° 55° (NE) 00:46:18 437.305
UNISAT 6 29 May 00:47:23 00:51:06 27° 289° (WNW) 00:54:41 437.425
CUBEBUG 1 29 May 00:48:31 00:52:10 25° 265° (W) 00:55:46 437.445
NANOSAT C BR1 29 May 00:52:54 00:57:04 52° 286° (WNW) 01:01:11 145.865
VELOX 1 29 May 01:00:06 01:00:43 10° 272° (W) 01:01:01 145.980
GONETS M04 29 May 01:01:35 01:10:25 83° 82° (E) 01:19:09
QB50P2 29 May 01:02:43 01:06:43 38° 287° (WNW) 01:10:39 145.880/145.840
ESTCUBE 1 29 May 01:09:37 01:12:01 14° 270° (W) 01:14:12 437.505/2401.250
POPSAT HIP 1 29 May 01:14:38 01:18:23 29° 289° (WNW) 01:22:03 437.405
DUCHIFAT 1 29 May 01:14:43 01:18:29 30° 289° (WNW) 01:22:09 145.980
